Location: Blankensee
(53.5126°N, 14.3055°E)
Time: 18:05:12
(UTC+00:00)

ADEOS II - Pass Details

Date: 08 August 2020
Orbit: 799 x 802 km, 98.5° (Epoch: 19 September)

Event Time Altitude Azimuth Distance (km) Brightness Sun altitude
Rises 00:09:35 0° 25° (NNE) 3,324 6.9 -19.2°
Reaches altitude 10° 00:12:38 10° 43° (NE) 2,388 5.5 -19.1°
Maximum altitude 00:16:20 19° 88° (E) 1,832 4.2 -18.9°
Drops below altitude 10° 00:19:59 10° 132° (SE) 2,374 4.3 -18.8°
Enters shadow 00:20:30 - 136° (SE) 2,510 4.4 -18.7°
